{"data":{"norad_id":67452,"epoch":"2026-05-25T05:36:26.852832Z","epoch_age_seconds":61968,"freshness":"FRESH","line1":"1 67452U 26008H   26145.23364413  .00011764  00000+0  43620-3 0  9990","line2":"2 67452  42.9995 133.3804 0000835 291.2685  68.8078 15.27591143 21272","mean_motion":15.27591143,"eccentricity":8.35e-5,"inclination_deg":42.9995,"raan_deg":133.3804,"arg_perigee_deg":291.2685,"mean_anomaly_deg":68.8078,"bstar":0.0004362,"rev_number":2127,"period_min":94.266061085692,"perigee_km":482.44282383884,"apogee_km":483.58863634477,"semimajor_km":6861.1527300918,"source":"CELESTRAK","updated_at":"2026-05-25T13:38:21.560600Z"}}